Temperature
20 18 17 18 19 19 19 19 19 20 21 21 20 20 20 21 21 20 21 21 22 22 22 22 22 21 21 21 20 20 20 19 19 18 18 17 17 16 16 15 15 15 15 14
18 17 19 19 20 20 20 19 19 20 21 21 20 20 20 20 20 21 21 21 21 22 22 22 22 21 21 21 21 20 20 19 19 18 18 17 17 16 16 15 15 15 15 15
17 18 20 20 20 20 19 19 19 19 20 20 20 19 20 20 21 21 21 21 21 22 22 22 21 21 21 21 20 20 20 19 19 19 18 17 17 16 16 16 15 15 15 15
18 19 20 20 20 20 19 20 20 20 19 18 19 18 19 19 19 20 20 21 21 21 21 21 21 21 21 21 20 20 20 19 19 19 18 18 17 17 16 16 16 15 15 15
18 19 20 20 20 20 19 20 20 20 18 18 19 18 19 19 19 19 19 20 21 21 21 21 21 21 21 21 20 20 20 19 19 18 18 18 17 17 17 16 16 16 15 15
18 19 20 20 21 21 20 19 19 18 18 18 19 18 19 18 19 19 19 20 20 21 21 21 21 21 21 20 20 20 19 19 19 18 18 18 17 17 17 16 16 16 16 15
19 19 20 20 20 20 19 18 17 18 18 18 19 19 18 19 19 19 19 20 20 21 21 21 21 21 20 20 20 20 19 19 18 18 18 17 17 17 17 16 16 16 16 16
18 18 19 20 20 19 18 18 17 18 18 18 19 19 19 20 20 20 20 20 20 20 20 20 20 20 20 20 20 19 19 19 18 18 18 17 17 17 17 16 16 16 16 16
17 18 20 21 21 20 18 18 18 17 18 18 18 19 19 19 18 19 19 19 20 20 20 20 20 20 20 20 19 19 19 19 18 18 18 17 17 17 17 16 16 16 16 16
18 18 20 21 21 21 19 18 17 17 17 18 18 18 18 18 18 18 18 19 19 20 20 20 20 20 19 19 19 19 19 18 18 18 17 17 17 17 17 16 16 16 16 16
18 18 19 20 21 20 20 19 18 17 17 17 17 18 19 19 19 18 18 19 19 19 19 19 19 19 19 19 19 19 18 18 18 17 17 17 17 17 16 16 16 16 16 16
18 17 18 20 21 22 21 20 18 18 18 17 17 18 20 19 19 19 18 19 19 19 19 19 19 19 19 19 19 18 18 18 17 17 17 17 17 16 16 16 16 16 16 15
19 18 18 19 20 21 21 21 20 18 17 16 17 19 19 18 18 19 19 19 19 19 19 19 19 18 18 18 18 18 18 17 17 17 17 16 16 16 16 16 15 15 15 15
19 18 18 19 19 20 21 22 21 19 17 18 18 18 18 18 17 17 18 19 19 19 19 18 18 18 18 18 18 18 17 17 17 17 16 16 16 16 15 15 15 15 15 15
19 19 20 20 21 22 22 22 22 20 19 18 19 18 19 18 18 18 18 18 18 18 18 18 18 18 18 18 17 17 17 17 16 16 16 16 15 15 15 15 15 15 15 15
19 20 21 21 22 22 22 22 22 21 21 20 19 19 19 19 19 18 18 18 18 18 18 18 18 18 18 17 17 17 17 16 16 16 16 15 15 15 15 15 14 14 14 14
19 19 20 20 21 22 21 22 22 22 21 20 19 19 18 17 18 18 18 18 18 18 18 18 18 18 18 17 17 17 16 16 16 16 15 15 15 14 14 14 14 14 14 14
19 18 17 18 20 20 21 21 22 22 22 20 20 19 19 20 20 20 20 19 19 19 18 18 18 17 17 17 17 16 16 16 15 15 15 15 14 14 14 13 13 13 13 13
19 18 17 17 19 20 21 22 21 21 21 21 20 19 20 20 19 18 19 20 20 19 19 18 18 18 17 17 16 16 16 15 15 15 14 14 14 13 13 13 13 13 13 13
17 17 17 17 19 19 20 22 23 21 21 21 20 19 18 18 17 17 20 20 20 19 19 18 18 17 17 16 16 16 15 15 15 14 14 14 13 13 13 12 12 12 12 12
18 17 16 17 18 18 20 21 22 21 20 21 21 20 19 19 20 21 21 20 20 19 18 18 17 17 17 16 16 15 15 15 14 14 14 13 13 12 12 12 12 11 11 11
17 16 16 15 17 18 20 21 20 20 22 22 22 22 21 21 21 21 20 20 19 19 18 18 17 17 16 16 15 15 15 14 14 14 13 13 12 12 12 12 11 11 11 11
16 17 16 17 18 19 21 22 23 23 23 23 23 22 22 21 21 20 20 20 19 18 18 17 17 16 16 15 15 15 14 14 13 13 13 12 12 12 11 11 11 11 11 10
16 16 16 16 17 19 21 22 23 23 23 23 23 22 22 21 21 20 20 19 18 18 17 17 16 16 15 15 15 14 14 14 13 13 12 12 12 11 11 11 11 11 10 10
18 17 16 16 18 19 20 22 22 22 23 22 22 22 22 21 20 20 19 19 18 18 17 17 16 16 15 15 14 14 14 13 13 12 12 12 11 11 11 11 10 10 10 10
16 16 16 17 18 17 20 21 22 22 22 22 21 21 21 21 20 20 19 19 18 17 17 16 16 15 15 14 14 14 13 13 13 12 12 12 11 11 11 10 10 10 10 9
Wind_Speed
2 4 3 6 6 5 4 4 4 3 3 4 5 3 2 3 5 5 6 6 7 6 5 5 8 8 7 7 8 8 7 6 5 4 3 3 2 1 1 1 2 3 4 5
3 3 7 4 2 3 4 3 3 2 3 4 4 2 0 1 4 6 7 8 8 6 4 4 6 7 7 7 7 7 7 6 5 4 3 2 2 1 0 1 2 1 2 3
6 5 5 5 4 5 5 6 5 5 3 4 5 4 2 1 3 4 5 6 7 9 8 6 6 6 7 7 7 8 7 6 5 5 4 4 4 3 3 2 2 2 1 2
4 5 4 6 6 7 6 6 7 7 6 2 4 3 3 1 3 3 4 6 6 6 6 6 6 6 6 6 5 6 6 6 5 5 5 4 3 1 1 1 1 2 2 1
4 3 4 6 8 7 5 6 6 5 4 3 2 5 4 1 3 3 4 6 6 6 7 7 6 5 5 5 5 5 6 5 5 5 6 5 3 1 1 0 1 2 2 2
3 2 3 4 5 6 6 7 6 5 3 2 4 5 5 5 7 6 5 6 7 7 7 6 5 5 5 5 5 5 6 4 4 4 4 4 3 2 0 1 1 1 2 2
2 2 1 3 6 4 7 7 4 2 1 3 3 3 7 7 8 9 10 8 7 7 7 7 6 6 5 6 5 5 6 4 3 4 3 3 3 3 2 2 2 1 1 2
3 2 3 3 5 6 5 7 7 6 5 2 0 4 5 4 6 8 9 8 8 7 6 7 7 6 6 6 5 5 5 4 3 3 2 2 2 2 2 2 2 2 2 2
6 4 3 3 4 8 6 4 6 6 4 2 1 1 4 4 7 8 8 8 8 7 7 7 6 6 5 5 4 5 5 4 2 2 2 1 1 1 2 2 1 1 1 1
6 3 3 2 4 2 7 8 5 5 5 3 2 4 7 11 11 9 9 9 8 7 7 7 6 5 4 4 4 4 4 4 2 2 1 2 1 0 1 0 0 1 2 1
4 4 2 2 5 7 5 5 5 5 5 6 4 6 8 15 15 14 12 10 10 9 8 7 5 5 5 5 5 5 4 4 3 2 2 3 2 2 2 1 1 2 2 1
5 5 3 5 5 7 6 7 7 6 4 5 5 6 4 14 13 13 12 10 9 9 8 7 6 5 5 5 4 4 4 4 3 3 3 3 3 3 3 3 3 3 2 2
7 5 4 2 3 2 3 5 6 6 5 5 5 5 1 9 11 12 13 11 9 9 8 6 6 5 5 4 4 4 3 3 3 4 4 4 3 3 3 3 3 3 3 3
6 4 6 9 8 7 6 7 8 7 5 5 7 7 5 11 12 12 12 12 10 9 9 7 6 5 4 4 4 4 3 3 4 5 5 4 3 2 2 3 3 4 4 3
5 4 5 6 7 6 7 9 10 8 9 8 9 12 15 18 18 16 14 12 12 10 9 9 7 5 5 4 4 4 3 3 4 5 5 3 3 4 4 4 4 4 4 5
4 4 2 3 5 6 6 9 10 9 7 6 6 8 8 10 10 12 13 15 13 12 10 9 8 7 6 6 5 5 4 4 5 6 4 3 4 5 5 5 5 5 5 5
4 5 3 3 3 1 5 10 10 8 7 10 10 10 10 10 16 19 18 16 15 13 11 11 9 8 7 7 6 6 5 5 6 6 4 4 4 4 4 4 5 5 5 4
7 6 4 2 2 5 9 6 8 9 8 10 9 11 19 19 19 15 13 16 15 14 12 11 9 8 6 6 6 6 6 6 6 5 4 3 4 3 3 4 4 4 3 4
6 8 4 3 3 5 8 5 7 8 7 8 11 13 14 10 8 4 9 13 14 13 11 10 9 8 7 7 7 8 7 6 5 4 3 2 3 3 3 3 3 3 3 4
5 6 6 4 4 6 9 7 4 7 5 5 10 14 13 14 9 10 11 11 12 11 10 9 9 8 8 7 8 9 7 6 5 3 2 1 2 2 1 2 2 2 2 3
4 4 5 5 5 7 8 4 6 7 9 6 11 14 16 13 11 9 13 12 12 11 10 11 10 8 7 8 8 8 6 5 5 4 2 1 1 0 0 1 1 2 2 3
9 7 6 6 5 9 6 6 8 9 3 6 10 13 14 9 8 11 15 14 14 12 10 10 10 8 6 8 9 8 6 5 4 4 2 1 0 1 1 1 1 2 2 2
8 9 8 9 9 7 5 7 5 6 6 6 9 10 12 10 10 11 13 14 13 12 11 9 10 8 6 7 8 8 6 5 5 4 2 1 1 1 0 0 0 1 1 1
4 3 5 3 5 3 3 4 4 5 6 6 8 10 12 11 11 12 13 12 11 10 10 9 10 9 7 6 7 7 6 6 6 4 3 2 2 2 2 1 1 1 2 2
4 4 4 2 3 2 0 3 6 7 8 9 8 8 11 13 11 12 12 12 11 9 8 9 10 9 8 7 6 6 6 6 5 4 4 3 3 3 3 3 3 4 5 5
3 6 7 7 8 7 6 5 6 9 8 9 10 8 8 11 13 12 11 10 10 9 8 8 8 7 7 6 6 6 6 6 6 4 4 4 3 3 3 3 4 7 7 10
Wind_Direction
122 93 187 203 186 173 167 177 182 201 187 131 144 153 172 166 143 158 158 166 162 171 184 160 153 149 143 138 135 136 133 133 121 105 98 91 82 66 45 343 52 56 50 52
69 233 226 206 199 184 190 184 186 158 144 129 125 109 307 176 170 174 168 165 160 159 147 145 141 138 142 149 149 143 144 141 136 132 137 142 138 144 210 328 11 28 46 46
176 227 218 205 212 206 214 188 186 161 108 92 98 30 8 8 85 106 141 155 153 158 158 155 146 143 142 150 158 157 157 146 138 126 105 78 57 40 23 9 345 325 0 28
224 243 208 198 216 201 207 196 177 156 128 159 134 137 285 134 91 104 138 144 151 152 147 151 144 142 154 162 155 150 151 144 139 130 122 120 116 129 245 245 272 303 316 344
232 212 193 201 212 188 183 142 138 133 118 87 87 124 261 182 138 171 163 151 151 151 148 149 147 146 147 146 144 142 142 142 144 137 133 126 128 180 249 315 330 328 322 316
234 244 191 190 175 162 128 94 70 54 72 120 199 143 220 212 186 171 161 150 148 147 140 135 128 119 111 114 120 128 135 141 144 138 137 144 153 162 128 340 307 311 313 308
331 309 293 141 118 111 105 107 89 57 50 235 204 154 225 218 185 164 159 151 141 140 136 131 125 122 120 118 119 125 130 134 144 142 151 167 177 180 192 218 233 252 288 278
159 246 239 176 153 149 150 140 150 163 183 244 53 207 252 192 158 143 141 138 132 135 140 143 143 138 134 130 125 126 126 126 134 148 171 173 173 175 203 213 209 219 235 247
169 217 241 190 156 138 140 164 159 131 136 124 243 322 2 99 132 136 135 133 140 145 142 139 135 132 133 131 131 136 133 122 130 146 149 139 172 178 204 217 201 217 245 255
152 173 231 193 112 105 150 152 122 127 147 161 205 202 196 182 173 162 155 156 155 146 136 129 127 129 129 127 118 114 120 124 117 115 111 96 77 145 202 183 262 268 272 273
145 157 208 149 173 170 151 138 131 131 150 147 186 248 212 187 176 169 171 168 158 150 145 139 133 129 122 109 108 108 108 100 95 99 85 69 51 37 41 27 325 300 302 294
166 139 176 228 233 181 168 165 149 150 187 169 170 253 231 177 171 163 163 161 155 149 147 142 134 122 115 112 110 110 105 102 106 101 89 75 56 42 37 12 342 342 338 321
155 134 116 337 325 215 185 179 165 140 129 159 166 248 14 147 152 158 156 157 153 147 141 134 129 129 132 129 121 116 110 112 106 98 89 68 49 41 25 3 355 359 356 348
140 138 167 188 206 193 197 198 172 143 162 185 200 191 167 163 162 164 161 159 154 152 148 144 143 145 145 140 134 128 118 111 104 94 86 69 45 33 16 7 7 6 6 6
136 167 209 224 226 196 194 195 187 178 182 182 206 185 189 182 175 171 165 159 156 157 157 156 156 154 146 135 128 123 116 105 104 97 83 61 41 36 31 24 13 9 11 11
150 170 197 264 237 200 203 207 201 200 191 187 169 203 194 166 151 158 166 166 166 168 168 164 160 155 152 146 137 121 111 107 100 95 84 64 53 42 31 22 19 17 10 2
159 154 149 249 279 124 234 216 202 198 188 165 182 203 155 157 174 179 178 175 174 173 169 168 167 165 161 158 147 137 131 113 101 98 85 66 58 45 25 22 25 15 3 4
144 135 144 183 101 211 242 241 194 188 200 188 183 175 172 182 187 184 175 174 175 173 169 168 164 160 157 151 142 129 120 112 107 99 83 67 62 46 24 24 15 359 355 358
148 138 129 137 188 268 289 261 182 177 222 198 177 175 175 145 116 174 190 176 174 171 166 163 161 154 147 143 138 124 117 115 111 109 100 83 78 62 37 20 357 348 0 4
93 111 125 134 170 231 247 258 183 128 226 229 170 160 151 134 163 210 190 168 160 155 153 150 145 137 140 147 137 127 132 130 139 154 157 131 101 88 49 358 344 349 8 5
122 102 140 160 204 256 252 251 117 149 226 209 168 160 161 172 190 177 157 158 156 151 150 146 142 142 151 150 138 136 147 165 179 169 147 114 105 145 189 354 352 0 13 13
174 167 176 154 193 250 244 147 174 206 202 161 165 167 169 161 131 138 150 153 151 148 146 145 143 145 150 148 141 147 172 189 173 153 139 129 268 281 50 56 357 359 17 10
191 188 181 184 210 237 213 189 198 164 149 159 164 168 156 141 144 148 153 155 155 153 152 150 146 146 153 158 152 160 189 181 163 154 165 197 252 287 279 173 300 336 343 332
259 154 135 195 256 240 181 154 136 139 142 148 151 151 148 147 149 151 155 157 157 155 157 152 149 154 168 174 171 176 180 170 161 170 192 204 206 247 263 246 225 239 266 276
230 150 139 190 236 100 79 166 146 120 112 115 122 140 151 144 148 155 159 162 163 159 157 157 162 170 180 180 184 187 178 166 170 185 203 213 216 224 241 249 239 236 240 233
217 166 162 205 210 175 200 199 149 130 129 131 128 129 141 148 154 155 161 163 161 159 155 158 165 174 183 183 191 197 187 174 175 194 214 219 223 230 236 253 280 270 263 273
Height
1502 1508 1512 1510 1510 1512 1515 1518 1520 1517 1512 1515 1519 1519 1518 1518 1519 1520 1522 1524 1526 1529 1531 1533 1535 1537 1539 1540 1541 1542 1542 1543 1543 1542 1542 1542 1541 1541 1540 1538 1537 1535 1534 1532
1507 1510 1505 1505 1507 1510 1513 1519 1521 1518 1512 1516 1521 1522 1520 1519 1519 1519 1521 1523 1525 1528 1531 1533 1535 1536 1538 1539 1541 1542 1542 1543 1543 1543 1543 1542 1542 1541 1540 1539 1538 1536 1535 1533
1509 1506 1502 1505 1509 1512 1515 1518 1519 1519 1516 1518 1523 1529 1525 1521 1519 1520 1521 1523 1525 1527 1529 1532 1534 1536 1538 1539 1540 1541 1542 1543 1543 1543 1543 1543 1542 1542 1541 1540 1539 1537 1536 1534
1506 1502 1502 1505 1508 1509 1516 1511 1512 1516 1524 1531 1528 1543 1531 1524 1523 1522 1522 1523 1525 1527 1529 1531 1534 1536 1538 1539 1540 1541 1542 1543 1543 1543 1543 1543 1543 1542 1541 1541 1539 1538 1537 1535
1505 1500 1502 1505 1504 1504 1510 1508 1512 1517 1525 1532 1531 1541 1537 1526 1527 1524 1522 1523 1524 1526 1528 1531 1533 1535 1537 1539 1540 1541 1542 1543 1543 1544 1544 1543 1543 1542 1542 1541 1540 1539 1538 1536
1500 1498 1498 1499 1499 1501 1505 1511 1518 1523 1530 1541 1533 1539 1539 1529 1524 1523 1522 1523 1524 1526 1528 1530 1533 1535 1536 1538 1540 1541 1542 1542 1543 1543 1543 1543 1543 1543 1542 1541 1540 1539 1538 1537
1503 1499 1497 1497 1502 1505 1508 1523 1538 1543 1546 1543 1529 1534 1532 1519 1516 1518 1520 1522 1524 1526 1528 1530 1532 1534 1535 1537 1539 1540 1541 1541 1542 1543 1543 1543 1543 1542 1542 1541 1540 1539 1538 1537
1510 1510 1499 1496 1500 1506 1511 1519 1537 1548 1549 1543 1531 1534 1525 1514 1515 1517 1519 1521 1524 1526 1527 1529 1531 1533 1535 1537 1538 1539 1540 1540 1541 1542 1542 1542 1542 1541 1541 1540 1540 1539 1538 1537
1509 1509 1495 1493 1495 1499 1512 1518 1518 1531 1537 1544 1538 1530 1522 1517 1517 1518 1520 1521 1523 1525 1527 1529 1531 1533 1534 1536 1537 1538 1539 1540 1540 1541 1541 1541 1541 1540 1540 1539 1539 1538 1537 1536
1499 1506 1496 1493 1493 1497 1501 1508 1520 1531 1542 1547 1541 1536 1532 1523 1520 1519 1520 1521 1523 1525 1527 1529 1530 1532 1534 1535 1536 1537 1538 1539 1539 1539 1539 1539 1539 1539 1539 1538 1538 1537 1536 1536
1494 1503 1501 1495 1497 1500 1503 1508 1514 1524 1528 1542 1548 1537 1510 1511 1511 1514 1517 1519 1521 1524 1526 1528 1530 1532 1533 1535 1536 1537 1537 1538 1538 1538 1538 1538 1538 1538 1537 1537 1537 1536 1535 1535
1492 1502 1506 1498 1489 1487 1492 1498 1508 1523 1527 1529 1535 1529 1499 1503 1507 1510 1515 1518 1521 1523 1526 1528 1530 1531 1533 1534 1535 1536 1536 1537 1537 1537 1537 1537 1537 1537 1536 1535 1535 1534 1534 1533
1488 1499 1511 1510 1503 1493 1492 1493 1498 1506 1518 1528 1532 1522 1501 1502 1507 1510 1513 1517 1520 1523 1525 1527 1529 1531 1532 1534 1535 1535 1536 1536 1537 1537 1537 1536 1536 1535 1535 1534 1534 1533 1532 1531
1481 1493 1502 1508 1502 1493 1492 1491 1493 1503 1517 1520 1517 1512 1507 1505 1506 1509 1512 1515 1518 1521 1524 1526 1528 1530 1532 1533 1534 1535 1535 1536 1536 1536 1536 1535 1535 1534 1534 1533 1532 1531 1531 1530
1479 1489 1488 1486 1482 1483 1485 1486 1488 1495 1500 1508 1505 1503 1499 1498 1500 1505 1509 1513 1517 1520 1522 1525 1527 1529 1530 1532 1533 1534 1534 1535 1535 1535 1535 1534 1534 1533 1532 1532 1531 1530 1529 1528
1478 1484 1484 1484 1478 1479 1483 1481 1483 1486 1489 1493 1495 1498 1490 1494 1500 1505 1508 1511 1514 1517 1520 1523 1525 1527 1529 1530 1532 1533 1533 1534 1534 1534 1534 1533 1533 1532 1531 1530 1529 1528 1527 1526
1477 1482 1489 1492 1482 1482 1489 1479 1479 1480 1480 1485 1493 1490 1489 1495 1498 1499 1503 1506 1509 1513 1517 1520 1523 1525 1527 1529 1531 1531 1532 1533 1533 1533 1533 1532 1531 1531 1530 1529 1528 1526 1525 1524
1474 1482 1491 1494 1490 1500 1482 1466 1467 1472 1473 1474 1475 1478 1482 1484 1488 1493 1497 1501 1506 1510 1514 1518 1521 1524 1526 1528 1529 1530 1531 1532 1532 1532 1531 1531 1530 1529 1528 1527 1526 1525 1523 1522
1466 1477 1490 1497 1497 1491 1476 1465 1465 1471 1474 1468 1471 1474 1479 1484 1491 1496 1497 1500 1503 1507 1512 1516 1519 1522 1524 1526 1528 1529 1530 1530 1530 1530 1530 1529 1528 1527 1527 1525 1524 1523 1522 1520
1467 1471 1486 1495 1496 1497 1477 1460 1457 1465 1475 1465 1466 1471 1477 1483 1494 1492 1492 1497 1502 1506 1510 1514 1517 1520 1522 1524 1526 1527 1528 1528 1528 1528 1528 1527 1527 1526 1525 1524 1523 1521 1520 1519
1475 1479 1486 1492 1493 1484 1464 1458 1459 1478 1475 1462 1463 1466 1472 1476 1478 1482 1488 1494 1499 1504 1508 1512 1515 1518 1520 1522 1524 1525 1526 1526 1527 1526 1526 1525 1525 1524 1523 1522 1521 1520 1518 1517
1473 1481 1486 1490 1492 1484 1456 1458 1462 1462 1457 1459 1461 1463 1467 1471 1476 1480 1485 1491 1496 1501 1506 1509 1513 1516 1518 1520 1522 1523 1524 1524 1524 1524 1524 1524 1523 1522 1521 1520 1519 1518 1516 1515
1464 1463 1467 1470 1469 1456 1452 1453 1453 1454 1456 1458 1460 1463 1467 1471 1475 1479 1484 1489 1494 1499 1503 1506 1510 1513 1516 1518 1519 1520 1521 1522 1522 1522 1522 1521 1521 1520 1519 1518 1517 1515 1514 1512
1456 1454 1459 1462 1457 1452 1451 1452 1453 1454 1456 1458 1460 1463 1467 1470 1474 1479 1483 1488 1492 1496 1500 1504 1507 1510 1512 1514 1516 1517 1518 1519 1519 1519 1519 1518 1518 1517 1516 1515 1514 1512 1511 1509
1451 1452 1456 1458 1454 1452 1452 1452 1453 1455 1457 1459 1461 1464 1467 1470 1474 1477 1481 1485 1489 1494 1497 1501 1504 1507 1509 1511 1513 1514 1515 1515 1516 1516 1515 1515 1514 1514 1513 1512 1511 1509 1508 1506
1448 1450 1454 1455 1449 1450 1451 1452 1453 1455 1457 1459 1461 1465 1468 1470 1473 1476 1480 1484 1488 1491 1495 1498 1501 1504 1506 1508 1509 1510 1511 1512 1512 1512 1512 1511 1511 1510 1509 1508 1507 1505 1504 1502